M I D A S
Marine Information and Data Acquisition System
Tripno 1383 of the Zeeleeuw from 2007-10-17 06:45:15 to 2007-10-17 14:47:27
Back to CruiseResearch ActivitiesStationsMapUnderway DataData graphs

EquipmentUnitsComments
TimeDGPSUTC
LatitudeDGPSDM.mWGS84
LongitudeDGPSDM.mWGS84
SpeedMeteo Stationm/sRelative wind speed
DirectionMeteo StationdegRelative wind direction
TemperatureMeteo Stationdeg CelciusAir temperature
PressureMeteo StationPaAtmospheric pressure
HumidityMeteo Station%Relative humidity
Missing or incorrect values are displayed as -999
Metereological data collected by the RV Zeeleeuw from 2007-10-17 06:05:17 to 2007-10-17 15:01:04
                                                                                    Next 1000 lines
Time Latitude Longitude Speed Direction Temperature Pressure Humidity
2007-10-17 06:05:27 51°13.597 2°56.093 -999 -999 -999 -999 -999
2007-10-17 06:05:32 51°13.597 2°56.093 -999 -999 -999 -999 -999
2007-10-17 06:05:37 51°13.597 2°56.092 -999 -999 -999 -999 -999
2007-10-17 06:05:42 51°13.597 2°56.092 -999 -999 -999 -999 -999
2007-10-17 06:05:48 51°13.597 2°56.092 -999 -999 -999 -999 -999
2007-10-17 06:05:52 51°13.597 2°56.092 -999 -999 -999 -999 -999
2007-10-17 06:05:57 51°13.597 2°56.092 -999 -999 -999 -999 -999
2007-10-17 06:06:02 51°13.597 2°56.092 -999 -999 -999 -999 -999
2007-10-17 06:06:08 51°13.597 2°56.092 -999 -999 -999 -999 -999
2007-10-17 06:06:12 51°13.598 2°56.092 -999 -999 -999 -999 -999
2007-10-17 06:06:17 51°13.598 2°56.092 -999 -999 -999 -999 -999
2007-10-17 06:06:22 51°13.597 2°56.093 -999 -999 -999 -999 -999
2007-10-17 06:06:27 51°13.597 2°56.092 -999 5 -999 -999 -999
2007-10-17 06:06:32 51°13.596 2°56.092 3 353 -999 -999 -999
2007-10-17 06:06:37 51°13.596 2°56.093 2.5 352 -999 -999 -999
2007-10-17 06:06:42 51°13.596 2°56.093 2.9 6 -999 -999 -999
2007-10-17 06:06:47 51°13.596 2°56.093 3.6 21 12.5 -999 81
2007-10-17 06:06:52 51°13.596 2°56.093 2.2 10 12.5 -999 81
2007-10-17 06:06:57 51°13.596 2°56.093 2.2 15 12.5 -999 100
2007-10-17 06:07:02 51°13.596 2°56.093 2.9 14 12.5 -999 100
2007-10-17 06:07:07 51°13.596 2°56.093 2.4 25 12.5 101140 100
2007-10-17 06:07:12 51°13.596 2°56.093 2.8 11 12.5 101140 100
2007-10-17 06:07:17 51°13.596 2°56.093 3 359 12.6 101140 100
2007-10-17 06:07:21 51°13.596 2°56.093 1.5 9 12.6 101140 100
2007-10-17 06:07:26 51°13.596 2°56.093 2.3 11 12.6 101140 100
2007-10-17 06:07:31 51°13.596 2°56.093 3 1 12.6 101140 100
2007-10-17 06:07:36 51°13.596 2°56.093 3 8 12.5 101140 100
2007-10-17 06:07:41 51°13.596 2°56.093 4.7 11 12.5 101140 100
2007-10-17 06:07:45 51°13.596 2°56.093 4.4 15 12.6 101140 100
2007-10-17 06:07:50 51°13.596 2°56.093 3.6 12 12.6 101140 100
2007-10-17 06:07:55 51°13.596 2°56.094 3.8 -999 12.6 101140 100
2007-10-17 06:08:00 51°13.596 2°56.094 3.1 351 12.6 101140 100
2007-10-17 06:08:05 51°13.596 2°56.094 2.6 4 12.5 101140 100
2007-10-17 06:08:10 51°13.596 2°56.093 2.7 8 12.5 101140 100
2007-10-17 06:08:14 51°13.597 2°56.093 3.6 5 12.6 101140 100
2007-10-17 06:08:19 51°13.597 2°56.093 3.7 356 12.6 101140 100
2007-10-17 06:08:24 51°13.597 2°56.094 3.1 13 12.6 101140 100
2007-10-17 06:08:29 51°13.597 2°56.094 2.6 1 12.6 101140 100
2007-10-17 06:08:34 51°13.597 2°56.094 2.5 7 12.6 101140 100
2007-10-17 06:08:39 51°13.597 2°56.094 3 5 12.6 101140 100
2007-10-17 06:08:44 51°13.597 2°56.094 3.6 25 12.6 101140 100
2007-10-17 06:08:49 51°13.597 2°56.094 5.5 14 12.6 101140 100
2007-10-17 06:08:53 51°13.597 2°56.094 4.1 14 12.6 101140 100
2007-10-17 06:08:59 51°13.597 2°56.093 4.1 26 12.6 101140 100
2007-10-17 06:09:04 51°13.597 2°56.094 3.1 5 12.6 101150 100
2007-10-17 06:09:09 51°13.597 2°56.094 2.6 1 12.6 101150 100
2007-10-17 06:09:14 51°13.597 2°56.094 3.2 359 12.6 101150 100
2007-10-17 06:09:19 51°13.597 2°56.094 2.1 359 12.6 101150 100
2007-10-17 06:09:24 51°13.597 2°56.094 2 -999 12.6 101150 100
2007-10-17 06:09:29 51°13.597 2°56.094 2.3 353 12.6 101150 100
2007-10-17 06:09:34 51°13.597 2°56.094 3.3 4 12.6 101150 100
2007-10-17 06:09:39 51°13.597 2°56.093 3.5 19 12.6 101150 100
2007-10-17 06:09:44 51°13.597 2°56.093 4.3 352 12.6 101150 100
2007-10-17 06:09:49 51°13.597 2°56.093 3.1 359 12.6 101150 100
2007-10-17 06:09:54 51°13.597 2°56.094 2.6 7 12.6 101150 100
2007-10-17 06:09:59 51°13.597 2°56.094 3.2 2 12.6 101150 100
2007-10-17 06:10:04 51°13.597 2°56.094 3.1 13 12.6 101150 100
2007-10-17 06:10:09 51°13.597 2°56.094 2.5 11 12.6 101150 100
2007-10-17 06:10:13 51°13.597 2°56.094 2.3 359 12.6 101150 100
2007-10-17 06:10:19 51°13.597 2°56.094 1.9 12 12.6 101150 100
2007-10-17 06:10:24 51°13.597 2°56.094 1.7 343 12.6 101150 100
2007-10-17 06:10:29 51°13.597 2°56.094 1.3 4 12.6 101150 100
2007-10-17 06:10:33 51°13.597 2°56.094 2.6 349 12.6 101150 100
2007-10-17 06:10:39 51°13.597 2°56.094 3.2 354 12.6 101150 100
2007-10-17 06:10:44 51°13.597 2°56.094 2.2 358 12.6 101150 100
2007-10-17 06:10:49 51°13.597 2°56.094 2.1 13 12.6 101150 100
2007-10-17 06:10:53 51°13.597 2°56.094 2.6 11 12.6 101150 100
2007-10-17 06:10:59 51°13.597 2°56.094 3 7 12.6 101150 100
2007-10-17 06:11:04 51°13.597 2°56.094 3.3 -999 12.6 101150 100
2007-10-17 06:11:09 51°13.597 2°56.094 2 358 12.6 101150 100
2007-10-17 06:11:13 51°13.597 2°56.094 1.7 359 12.6 101150 100
2007-10-17 06:11:19 51°13.597 2°56.094 2.7 6 12.6 101150 100
2007-10-17 06:11:24 51°13.597 2°56.094 3.1 3 12.6 101150 100
2007-10-17 06:11:29 51°13.597 2°56.094 3.7 355 12.6 101150 100
2007-10-17 06:11:33 51°13.597 2°56.093 2.8 355 12.6 101150 100
2007-10-17 06:11:39 51°13.598 2°56.094 3.7 3 12.6 101150 100
2007-10-17 06:11:44 51°13.598 2°56.093 3.8 353 12.6 101150 100
2007-10-17 06:11:49 51°13.598 2°56.094 4.5 16 12.6 101150 100
2007-10-17 06:11:53 51°13.598 2°56.093 4.2 356 12.6 101150 100
2007-10-17 06:11:59 51°13.598 2°56.094 4.7 12 12.6 101150 100
2007-10-17 06:12:04 51°13.598 2°56.093 4.3 4 12.6 101150 100
2007-10-17 06:12:09 51°13.598 2°56.093 4.8 355 12.6 101150 100
2007-10-17 06:12:14 51°13.598 2°56.094 3.9 356 12.6 101150 100
2007-10-17 06:12:19 51°13.598 2°56.094 3.1 19 12.6 101150 100
2007-10-17 06:12:24 51°13.598 2°56.094 3.3 10 12.6 101150 100
2007-10-17 06:12:29 51°13.598 2°56.094 2.8 24 12.6 101150 100
2007-10-17 06:12:33 51°13.598 2°56.094 1.9 13 12.6 101150 100
2007-10-17 06:12:39 51°13.598 2°56.094 3.2 360 12.6 101150 100
2007-10-17 06:12:44 51°13.598 2°56.094 3.2 13 12.6 101150 100
2007-10-17 06:12:49 51°13.598 2°56.094 3 2 12.6 101150 100
2007-10-17 06:12:53 51°13.598 2°56.094 3.2 358 12.6 101150 100
2007-10-17 06:12:59 51°13.598 2°56.094 2.6 354 12.6 101150 100
2007-10-17 06:13:04 51°13.598 2°56.094 2.1 2 12.6 101150 100
2007-10-17 06:13:09 51°13.598 2°56.094 1.6 7 12.6 101150 100
2007-10-17 06:13:13 51°13.598 2°56.094 2.3 8 12.6 101150 100
2007-10-17 06:13:19 51°13.598 2°56.094 3 10 12.6 101150 100
2007-10-17 06:13:24 51°13.598 2°56.094 2.8 7 12.6 101150 100
2007-10-17 06:13:29 51°13.598 2°56.094 3 4 12.6 101150 100
2007-10-17 06:13:34 51°13.598 2°56.094 3.6 356 12.7 101150 100
2007-10-17 06:13:39 51°13.598 2°56.094 4.9 359 12.7 101150 100
2007-10-17 06:13:44 51°13.598 2°56.094 5.3 8 12.6 101150 100
2007-10-17 06:13:49 51°13.598 2°56.094 5.3 1 12.6 101150 100
2007-10-17 06:13:54 51°13.598 2°56.094 5.2 9 12.6 101150 100
2007-10-17 06:13:59 51°13.598 2°56.094 5.2 3 12.6 101150 100
2007-10-17 06:14:04 51°13.598 2°56.094 5.2 360 12.7 101150 100
2007-10-17 06:14:09 51°13.598 2°56.094 4.2 3 12.7 101150 100
2007-10-17 06:14:13 51°13.598 2°56.094 4.1 17 12.7 101150 100
2007-10-17 06:14:19 51°13.598 2°56.094 3.9 9 12.7 101150 100
2007-10-17 06:14:24 51°13.598 2°56.094 4.1 359 12.7 101150 100
2007-10-17 06:14:29 51°13.598 2°56.094 4.9 354 12.7 101150 100
2007-10-17 06:14:33 51°13.598 2°56.094 3.8 21 12.7 101150 100
2007-10-17 06:14:39 51°13.598 2°56.094 3.7 1 12.7 101150 100
2007-10-17 06:14:44 51°13.598 2°56.094 3.8 6 12.7 101150 100
2007-10-17 06:14:49 51°13.598 2°56.095 3.4 13 12.7 101150 100
2007-10-17 06:14:53 51°13.598 2°56.095 3.3 8 12.7 101150 100
2007-10-17 06:14:59 51°13.598 2°56.094 3.9 21 12.7 101150 100
2007-10-17 06:15:04 51°13.598 2°56.094 3.2 4 12.6 101160 100
2007-10-17 06:15:09 51°13.598 2°56.094 4.5 352 12.6 101160 100
2007-10-17 06:15:13 51°13.598 2°56.094 2.9 353 12.7 101160 100
2007-10-17 06:15:19 51°13.598 2°56.094 3.8 12 12.7 101160 100
2007-10-17 06:15:24 51°13.598 2°56.094 4.2 354 12.7 101150 100
2007-10-17 06:15:29 51°13.598 2°56.094 3.3 357 12.7 101150 100
2007-10-17 06:15:34 51°13.598 2°56.094 4.8 16 12.7 101160 100
2007-10-17 06:15:39 51°13.598 2°56.094 4.3 10 12.7 101160 100
2007-10-17 06:15:44 51°13.598 2°56.094 4.4 7 12.7 101160 100
2007-10-17 06:15:49 51°13.598 2°56.094 3.5 7 12.7 101160 100
2007-10-17 06:15:53 51°13.598 2°56.094 3.2 -999 12.7 101160 100
2007-10-17 06:15:59 51°13.598 2°56.094 2.4 5 12.7 101160 100
2007-10-17 06:16:04 51°13.598 2°56.094 2.6 360 12.7 101160 100
2007-10-17 06:16:09 51°13.598 2°56.094 3 21 12.7 101160 100
2007-10-17 06:16:14 51°13.598 2°56.094 3 24 12.7 101150 100
2007-10-17 06:16:19 51°13.598 2°56.094 2.4 2 12.7 101150 100
2007-10-17 06:16:24 51°13.598 2°56.094 2.7 18 12.7 101150 100
2007-10-17 06:16:29 51°13.598 2°56.094 3 359 12.7 101150 100
2007-10-17 06:16:33 51°13.598 2°56.094 3 350 12.7 101150 100
2007-10-17 06:16:39 51°13.598 2°56.094 3.5 353 12.7 101150 100
2007-10-17 06:16:44 51°13.598 2°56.094 4 6 12.7 101160 100
2007-10-17 06:16:49 51°13.598 2°56.094 4 15 12.7 101160 100
2007-10-17 06:16:53 51°13.598 2°56.094 3.1 23 12.7 101160 100
2007-10-17 06:16:59 51°13.599 2°56.094 2.5 31 12.7 101160 100
2007-10-17 06:17:04 51°13.599 2°56.094 2.2 356 12.7 101160 100
2007-10-17 06:17:09 51°13.599 2°56.094 3 358 12.7 101160 100
2007-10-17 06:17:13 51°13.599 2°56.095 2.7 4 12.7 101160 100
2007-10-17 06:17:19 51°13.599 2°56.095 2.8 3 12.7 101160 100
2007-10-17 06:17:24 51°13.599 2°56.095 3.6 4 12.7 101160 100
2007-10-17 06:17:29 51°13.599 2°56.095 2.8 -999 12.7 101160 100
2007-10-17 06:17:34 51°13.599 2°56.095 2.8 360 12.7 101160 100
2007-10-17 06:17:39 51°13.599 2°56.095 2.9 352 12.7 101160 100
2007-10-17 06:17:44 51°13.599 2°56.095 3.3 12 12.7 101160 100
2007-10-17 06:17:49 51°13.599 2°56.095 4 9 12.7 101160 100
2007-10-17 06:17:53 51°13.599 2°56.095 2.8 11 12.7 101160 100
2007-10-17 06:17:59 51°13.6 2°56.095 2.9 18 12.7 101160 100
2007-10-17 06:18:04 51°13.599 2°56.095 3.4 345 12.7 101160 100
2007-10-17 06:18:09 51°13.599 2°56.095 3 2 12.7 101160 100
2007-10-17 06:18:13 51°13.599 2°56.095 3.5 359 12.7 101160 100
2007-10-17 06:18:19 51°13.599 2°56.095 3.7 3 12.7 101160 100
2007-10-17 06:18:24 51°13.599 2°56.095 4.3 10 12.7 101160 100
2007-10-17 06:18:29 51°13.599 2°56.095 3.8 13 12.7 101160 100
2007-10-17 06:18:34 51°13.599 2°56.095 3.9 18 12.7 101160 100
2007-10-17 06:18:39 51°13.599 2°56.095 3.2 359 12.7 101160 100
2007-10-17 06:18:44 51°13.599 2°56.095 3.1 2 12.7 101160 100
2007-10-17 06:18:49 51°13.599 2°56.095 3 351 12.7 101160 100
2007-10-17 06:18:53 51°13.599 2°56.095 3.6 356 12.7 101160 100
2007-10-17 06:18:59 51°13.599 2°56.095 4.4 10 12.7 101160 100
2007-10-17 06:19:04 51°13.599 2°56.095 3 5 12.7 101160 100
2007-10-17 06:19:09 51°13.599 2°56.095 2.3 5 12.7 101160 100
2007-10-17 06:19:13 51°13.599 2°56.095 3 9 12.7 101160 100
2007-10-17 06:19:19 51°13.599 2°56.095 3.1 355 12.7 101160 100
2007-10-17 06:19:24 51°13.599 2°56.095 3.1 8 12.7 101160 100
2007-10-17 06:19:29 51°13.599 2°56.095 5.5 1 12.7 101160 100
2007-10-17 06:19:33 51°13.599 2°56.095 3.9 357 12.7 101160 100
2007-10-17 06:19:39 51°13.599 2°56.095 2.9 9 12.7 101160 100
2007-10-17 06:19:44 51°13.599 2°56.095 3.5 16 12.7 101170 100
2007-10-17 06:19:49 51°13.599 2°56.095 3.8 360 12.7 101170 100
2007-10-17 06:19:53 51°13.599 2°56.095 3.3 1 12.7 101160 100
2007-10-17 06:19:59 51°13.599 2°56.095 2.9 4 12.7 101160 100
2007-10-17 06:20:04 51°13.598 2°56.096 4.2 11 12.7 101160 100
2007-10-17 06:20:09 51°13.597 2°56.096 3.8 5 12.7 101160 100
2007-10-17 06:20:14 51°13.596 2°56.096 4.5 16 12.7 101160 100
2007-10-17 06:20:19 51°13.596 2°56.096 3.3 17 12.7 101160 100
2007-10-17 06:20:24 51°13.597 2°56.096 1.8 5 12.7 101160 100
2007-10-17 06:20:29 51°13.597 2°56.096 2.2 357 12.7 101160 100
2007-10-17 06:20:33 51°13.597 2°56.096 3 2 12.7 101160 100
2007-10-17 06:20:39 51°13.598 2°56.096 2.9 350 12.7 101160 100
2007-10-17 06:20:44 51°13.599 2°56.096 3.1 3 12.7 101170 100
2007-10-17 06:20:49 51°13.599 2°56.096 3 9 12.7 101170 100
2007-10-17 06:20:53 51°13.598 2°56.096 3.4 12 12.7 101160 100
2007-10-17 06:20:59 51°13.598 2°56.096 3.5 11 12.7 101160 100
2007-10-17 06:21:04 51°13.597 2°56.096 2.5 352 12.7 101160 100
2007-10-17 06:21:09 51°13.597 2°56.096 2.7 354 12.7 101160 100
2007-10-17 06:21:13 51°13.597 2°56.096 2 9 12.7 101160 100
2007-10-17 06:21:19 51°13.596 2°56.096 3.8 4 12.7 101160 100
2007-10-17 06:21:24 51°13.596 2°56.096 3.6 7 12.7 101170 100
2007-10-17 06:21:29 51°13.597 2°56.096 4.3 4 12.7 101170 100
2007-10-17 06:21:33 51°13.597 2°56.096 4.2 8 12.7 101170 100
2007-10-17 06:21:39 51°13.597 2°56.097 4.5 -999 12.7 101170 100
2007-10-17 06:21:44 51°13.597 2°56.097 3.2 353 12.7 101160 100
2007-10-17 06:21:49 51°13.597 2°56.097 3.9 1 12.7 101160 100
2007-10-17 06:21:53 51°13.597 2°56.097 3.6 15 12.7 101170 100
2007-10-17 06:21:59 51°13.597 2°56.097 3.9 4 12.7 101170 100
2007-10-17 06:22:04 51°13.597 2°56.097 4.3 355 12.7 101160 100
2007-10-17 06:22:09 51°13.596 2°56.097 4.9 360 12.7 101160 100
2007-10-17 06:22:13 51°13.596 2°56.097 3.7 355 12.7 101170 100
2007-10-17 06:22:19 51°13.596 2°56.097 3.2 24 12.7 101170 100
2007-10-17 06:22:24 51°13.595 2°56.097 4.7 18 12.7 101170 100
2007-10-17 06:22:29 51°13.595 2°56.097 3.9 21 12.7 101170 100
2007-10-17 06:22:33 51°13.595 2°56.097 4.4 13 12.7 101160 100
2007-10-17 06:22:39 51°13.595 2°56.097 3.9 18 12.7 101160 100
2007-10-17 06:22:44 51°13.596 2°56.097 3.8 21 12.7 101160 100
2007-10-17 06:22:49 51°13.596 2°56.097 3.5 15 12.7 101160 100
2007-10-17 06:22:53 51°13.596 2°56.097 3.2 19 12.7 101170 100
2007-10-17 06:22:59 51°13.596 2°56.097 4.4 355 12.7 101170 100
2007-10-17 06:23:04 51°13.596 2°56.097 2.9 3 12.7 101170 100
2007-10-17 06:23:09 51°13.596 2°56.097 3.8 14 12.7 101170 100
2007-10-17 06:23:14 51°13.596 2°56.097 4.7 10 12.7 101170 100
2007-10-17 06:23:19 51°13.596 2°56.097 3.8 3 12.7 101170 100
2007-10-17 06:23:24 51°13.596 2°56.097 5.3 13 12.7 101170 100
2007-10-17 06:23:29 51°13.596 2°56.097 4.2 6 12.7 101170 100
2007-10-17 06:23:34 51°13.596 2°56.097 4.5 11 12.8 101170 100
2007-10-17 06:23:39 51°13.596 2°56.097 3.1 36 12.8 101170 100
2007-10-17 06:23:44 51°13.597 2°56.097 3.9 15 12.7 101170 100
2007-10-17 06:23:49 51°13.597 2°56.097 4.9 16 12.7 101170 100
2007-10-17 06:23:53 51°13.597 2°56.097 3.9 11 12.7 101170 100
2007-10-17 06:23:59 51°13.597 2°56.097 4.5 19 12.7 101170 100
2007-10-17 06:24:04 51°13.597 2°56.097 5.1 19 12.7 101170 100
2007-10-17 06:24:09 51°13.597 2°56.097 4.8 11 12.7 101170 100
2007-10-17 06:24:13 51°13.597 2°56.097 4.2 18 12.7 101170 100
2007-10-17 06:24:19 51°13.597 2°56.097 2.2 1 12.7 101170 100
2007-10-17 06:24:24 51°13.597 2°56.097 3.4 16 12.7 101170 100
2007-10-17 06:24:29 51°13.597 2°56.097 3.1 7 12.7 101170 100
2007-10-17 06:24:33 51°13.597 2°56.097 2.8 360 12.8 101170 100
2007-10-17 06:24:39 51°13.597 2°56.097 3.2 9 12.8 101170 100
2007-10-17 06:24:44 51°13.597 2°56.097 4.4 356 12.7 101170 100
2007-10-17 06:24:49 51°13.597 2°56.097 3.1 349 12.7 101170 100
2007-10-17 06:24:53 51°13.597 2°56.097 3.1 9 12.7 101160 100
2007-10-17 06:24:59 51°13.597 2°56.097 2.4 8 12.7 101160 100
2007-10-17 06:25:04 51°13.596 2°56.097 3.4 8 12.8 101170 100
2007-10-17 06:25:09 51°13.596 2°56.097 3 353 12.8 101170 100
2007-10-17 06:25:14 51°13.597 2°56.097 2.7 9 12.8 101170 100
2007-10-17 06:25:19 51°13.597 2°56.097 3.9 12 12.8 101170 100
2007-10-17 06:25:24 51°13.597 2°56.097 2.6 20 12.8 101170 100
2007-10-17 06:25:29 51°13.597 2°56.097 2 22 12.8 101170 100
2007-10-17 06:25:34 51°13.597 2°56.097 2.9 359 12.8 101170 100
2007-10-17 06:25:40 51°13.597 2°56.097 1.9 5 12.8 101170 100
2007-10-17 06:25:44 51°13.597 2°56.097 2 16 12.8 101170 100
2007-10-17 06:25:49 51°13.597 2°56.097 1.6 354 12.8 101170 100
2007-10-17 06:25:54 51°13.595 2°56.097 3 347 12.8 101170 100
2007-10-17 06:25:59 51°13.592 2°56.097 2.9 357 12.8 101170 100
2007-10-17 06:26:04 51°13.591 2°56.097 4.2 6 12.8 101170 100
2007-10-17 06:26:09 51°13.591 2°56.097 3.4 13 12.8 101170 100
2007-10-17 06:26:13 51°13.592 2°56.097 5.8 21 12.8 101170 100
2007-10-17 06:26:19 51°13.593 2°56.097 5.6 19 12.8 101170 100
2007-10-17 06:26:24 51°13.593 2°56.097 4.8 22 12.8 101180 100
2007-10-17 06:26:29 51°13.594 2°56.097 5.3 21 12.8 101180 100
2007-10-17 06:26:33 51°13.595 2°56.097 4.5 22 12.7 101170 100
2007-10-17 06:26:39 51°13.595 2°56.097 4.1 10 12.7 101170 100
2007-10-17 06:26:44 51°13.596 2°56.097 3.4 8 12.8 101180 100
2007-10-17 06:26:49 51°13.596 2°56.097 3.7 10 12.8 101180 100
2007-10-17 06:26:54 51°13.595 2°56.097 4.4 8 12.8 101170 100
2007-10-17 06:26:59 51°13.595 2°56.097 3.3 11 12.8 101170 100
2007-10-17 06:27:04 51°13.595 2°56.097 3.1 16 12.8 101170 100
2007-10-17 06:27:09 51°13.596 2°56.097 5.3 13 12.8 101170 100
2007-10-17 06:27:13 51°13.597 2°56.097 4.9 7 12.8 101170 100
2007-10-17 06:27:19 51°13.598 2°56.097 4.8 11 12.8 101170 100
2007-10-17 06:27:24 51°13.598 2°56.097 4.3 8 12.8 101180 100
2007-10-17 06:27:29 51°13.598 2°56.097 4 18 12.8 101180 100
2007-10-17 06:27:33 51°13.598 2°56.097 3.1 11 12.8 101180 100
2007-10-17 06:27:39 51°13.598 2°56.097 2.4 25 12.8 101180 100
2007-10-17 06:27:44 51°13.597 2°56.097 3.5 13 12.8 101170 100
2007-10-17 06:27:49 51°13.597 2°56.097 3.5 14 12.8 101170 100
2007-10-17 06:27:54 51°13.597 2°56.097 2.8 356 12.8 101170 100
2007-10-17 06:27:59 51°13.598 2°56.097 3.4 7 12.8 101170 100
2007-10-17 06:28:04 51°13.598 2°56.097 4.3 360 12.8 101170 100
2007-10-17 06:28:09 51°13.598 2°56.097 3.5 359 12.8 101170 100
2007-10-17 06:28:13 51°13.598 2°56.097 3.9 2 12.8 101170 100
2007-10-17 06:28:19 51°13.598 2°56.097 3.9 4 12.8 101170 100
2007-10-17 06:28:24 51°13.598 2°56.097 4.7 8 12.8 101180 100
2007-10-17 06:28:29 51°13.598 2°56.097 5.3 1 12.8 101180 100
2007-10-17 06:28:33 51°13.598 2°56.097 4 6 12.8 101170 100
2007-10-17 06:28:39 51°13.598 2°56.097 2.7 6 12.8 101170 100
2007-10-17 06:28:44 51°13.598 2°56.097 3.4 29 12.8 101180 100
2007-10-17 06:28:49 51°13.598 2°56.097 3.5 12 12.8 101180 100
2007-10-17 06:28:54 51°13.598 2°56.097 3.1 25 12.8 101170 100
2007-10-17 06:28:59 51°13.598 2°56.097 2.7 11 12.8 101170 100
2007-10-17 06:29:04 51°13.598 2°56.097 2.9 2 12.8 101170 100
2007-10-17 06:29:09 51°13.598 2°56.097 4.3 1 12.8 101170 100
2007-10-17 06:29:13 51°13.598 2°56.097 4.8 14 12.8 101170 100
2007-10-17 06:29:19 51°13.598 2°56.097 5 6 12.8 101170 100
2007-10-17 06:29:24 51°13.599 2°56.097 4.5 12 12.8 101170 100
2007-10-17 06:29:29 51°13.599 2°56.097 4.4 13 12.8 101170 100
2007-10-17 06:29:33 51°13.599 2°56.096 4 21 12.8 101170 100
2007-10-17 06:29:39 51°13.598 2°56.096 5.1 18 12.8 101170 100
2007-10-17 06:29:44 51°13.598 2°56.096 3.7 21 12.8 101170 100
2007-10-17 06:29:49 51°13.598 2°56.096 3.7 8 12.8 101170 100
2007-10-17 06:29:54 51°13.598 2°56.097 4.1 5 12.8 101170 100
2007-10-17 06:29:59 51°13.598 2°56.097 3.7 5 12.8 101170 100
2007-10-17 06:30:04 51°13.598 2°56.097 5.2 6 12.8 101170 100
2007-10-17 06:30:09 51°13.598 2°56.096 2.4 24 12.8 101170 100
2007-10-17 06:30:13 51°13.598 2°56.096 4.2 8 12.8 101170 100
2007-10-17 06:30:19 51°13.598 2°56.096 5.5 6 12.8 101170 100
2007-10-17 06:30:24 51°13.598 2°56.096 4.8 11 12.8 101170 100
2007-10-17 06:30:29 51°13.598 2°56.096 4.6 22 12.8 101170 100
2007-10-17 06:30:33 51°13.598 2°56.096 4.8 15 12.8 101180 100
2007-10-17 06:30:39 51°13.598 2°56.096 3.9 13 12.8 101180 100
2007-10-17 06:30:44 51°13.597 2°56.096 3.6 15 12.8 101180 100
2007-10-17 06:30:49 51°13.597 2°56.096 3.1 21 12.8 101180 100
2007-10-17 06:30:53 51°13.597 2°56.096 3.3 12 12.8 101170 100
2007-10-17 06:30:59 51°13.597 2°56.096 2.6 14 12.8 101170 100
2007-10-17 06:31:04 51°13.597 2°56.096 3.2 22 12.8 101170 100
2007-10-17 06:31:09 51°13.597 2°56.096 1.6 17 12.8 101170 100
2007-10-17 06:31:13 51°13.597 2°56.096 3.9 12 12.8 101170 100
2007-10-17 06:31:19 51°13.597 2°56.096 3.3 5 12.8 101170 100
2007-10-17 06:31:24 51°13.597 2°56.096 4.2 -999 12.8 101180 100
2007-10-17 06:31:29 51°13.597 2°56.097 4.3 344 12.8 101180 100
2007-10-17 06:31:34 51°13.598 2°56.097 3.6 356 12.8 101180 100
2007-10-17 06:31:39 51°13.598 2°56.097 3.7 5 12.8 101180 100
2007-10-17 06:31:44 51°13.598 2°56.097 4.5 2 12.8 101180 100
2007-10-17 06:31:49 51°13.598 2°56.097 4.3 351 12.8 101180 100
2007-10-17 06:31:53 51°13.598 2°56.097 4.6 360 12.8 101180 100
2007-10-17 06:31:59 51°13.598 2°56.097 4.1 357 12.8 101180 100
2007-10-17 06:32:04 51°13.598 2°56.097 3.2 6 12.8 101170 100
2007-10-17 06:32:09 51°13.598 2°56.097 4.2 360 12.8 101170 100
2007-10-17 06:32:14 51°13.598 2°56.097 3.7 6 12.8 101180 100
2007-10-17 06:32:20 51°13.598 2°56.097 4 11 12.8 101180 100
2007-10-17 06:32:24 51°13.598 2°56.097 4.6 5 12.8 101180 100
2007-10-17 06:32:29 51°13.598 2°56.097 4.8 5 12.8 101180 100
2007-10-17 06:32:34 51°13.598 2°56.097 4 4 12.8 101170 100
2007-10-17 06:32:40 51°13.598 2°56.097 4.8 5 12.8 101170 100
2007-10-17 06:32:45 51°13.598 2°56.097 4.3 9 12.8 101180 100
2007-10-17 06:32:49 51°13.598 2°56.097 2.7 359 12.8 101180 100
2007-10-17 06:32:54 51°13.598 2°56.097 3.4 20 12.8 101180 100
2007-10-17 06:32:59 51°13.598 2°56.097 6.6 359 12.8 101180 100
2007-10-17 06:33:04 51°13.598 2°56.097 4 347 12.8 101170 100
2007-10-17 06:33:09 51°13.598 2°56.097 4 5 12.8 101170 100
2007-10-17 06:33:13 51°13.598 2°56.097 5.3 10 12.8 101170 100
2007-10-17 06:33:19 51°13.598 2°56.097 5.7 12 12.8 101170 100
2007-10-17 06:33:24 51°13.598 2°56.097 5.6 17 12.8 101170 100
2007-10-17 06:33:29 51°13.598 2°56.097 5.5 17 12.8 101170 100
2007-10-17 06:33:33 51°13.598 2°56.097 5.3 15 12.8 101170 100
2007-10-17 06:33:39 51°13.598 2°56.097 4.9 11 12.8 101170 100
2007-10-17 06:33:44 51°13.598 2°56.097 4.5 15 12.8 101170 100
2007-10-17 06:33:49 51°13.598 2°56.097 2.7 17 12.8 101170 100
2007-10-17 06:33:53 51°13.598 2°56.097 4 23 12.8 101170 100
2007-10-17 06:34:00 51°13.598 2°56.097 4.4 17 12.8 101170 100
2007-10-17 06:34:04 51°13.598 2°56.097 3.4 3 12.8 101180 100
2007-10-17 06:34:09 51°13.597 2°56.097 3.3 357 12.8 101180 100
2007-10-17 06:34:14 51°13.598 2°56.097 3.9 352 12.8 101180 100
2007-10-17 06:34:19 51°13.603 2°56.097 4.3 7 12.8 101180 100
2007-10-17 06:34:24 51°13.607 2°56.097 4.8 2 12.8 101180 100
2007-10-17 06:34:29 51°13.609 2°56.097 3.3 14 12.8 101180 100
2007-10-17 06:34:34 51°13.61 2°56.097 4.3 356 12.8 101180 100
2007-10-17 06:34:39 51°13.609 2°56.097 4.9 359 12.8 101180 100
2007-10-17 06:34:44 51°13.608 2°56.097 4.6 1 12.8 101180 100
2007-10-17 06:34:49 51°13.607 2°56.097 4.7 20 12.8 101180 100
2007-10-17 06:34:54 51°13.606 2°56.097 3.2 23 12.8 101180 100
2007-10-17 06:34:59 51°13.605 2°56.097 3.9 2 12.8 101180 100
2007-10-17 06:35:04 51°13.604 2°56.097 4 8 12.8 101180 100
2007-10-17 06:35:09 51°13.604 2°56.097 4.7 13 12.8 101180 100
2007-10-17 06:35:13 51°13.604 2°56.097 4.8 14 12.8 101170 100
2007-10-17 06:35:19 51°13.603 2°56.097 2.5 9 12.8 101170 100
2007-10-17 06:35:24 51°13.603 2°56.097 3 14 12.8 101170 100
2007-10-17 06:35:29 51°13.602 2°56.097 3.5 359 12.8 101170 100
2007-10-17 06:35:33 51°13.602 2°56.097 4.6 7 12.8 101180 100
2007-10-17 06:35:39 51°13.602 2°56.097 4.1 2 12.8 101180 100
2007-10-17 06:35:44 51°13.601 2°56.097 3 351 12.8 101180 100
2007-10-17 06:35:49 51°13.598 2°56.097 4 348 12.8 101180 100
2007-10-17 06:35:53 51°13.599 2°56.097 3.8 29 12.8 101180 100
2007-10-17 06:35:59 51°13.6 2°56.097 3.3 13 12.8 101180 100
2007-10-17 06:36:04 51°13.6 2°56.097 3.4 11 12.8 101180 100
2007-10-17 06:36:09 51°13.599 2°56.097 4.3 18 12.8 101180 100
2007-10-17 06:36:14 51°13.599 2°56.097 3.5 14 12.8 101170 100
2007-10-17 06:36:19 51°13.598 2°56.097 2.9 10 12.8 101170 100
2007-10-17 06:36:24 51°13.598 2°56.097 4.5 8 12.8 101180 100
2007-10-17 06:36:29 51°13.597 2°56.097 4.8 15 12.8 101180 100
2007-10-17 06:36:34 51°13.597 2°56.097 4 4 12.8 101180 100
2007-10-17 06:36:39 51°13.597 2°56.097 4.3 6 12.8 101180 100
2007-10-17 06:36:44 51°13.597 2°56.097 4.1 18 12.8 101180 100
2007-10-17 06:36:49 51°13.597 2°56.097 4.5 9 12.8 101180 100
2007-10-17 06:36:54 51°13.596 2°56.097 2.8 22 12.8 101180 100
2007-10-17 06:36:59 51°13.596 2°56.097 3.7 356 12.8 101180 100
2007-10-17 06:37:04 51°13.596 2°56.097 3.1 13 12.8 101170 100
2007-10-17 06:37:09 51°13.597 2°56.097 3.1 3 12.8 101170 100
2007-10-17 06:37:14 51°13.597 2°56.097 3.5 9 12.8 101180 100
2007-10-17 06:37:19 51°13.597 2°56.097 2.9 358 12.8 101180 100
2007-10-17 06:37:24 51°13.597 2°56.097 3.1 21 12.8 101180 100
2007-10-17 06:37:29 51°13.597 2°56.097 3.3 16 12.8 101180 100
2007-10-17 06:37:33 51°13.597 2°56.097 3.4 13 12.8 101170 100
2007-10-17 06:37:39 51°13.597 2°56.097 2.4 7 12.8 101170 100
2007-10-17 06:37:44 51°13.597 2°56.097 2.7 25 12.8 101180 100
2007-10-17 06:37:49 51°13.597 2°56.097 3.6 15 12.8 101180 100
2007-10-17 06:37:53 51°13.597 2°56.097 5.2 28 12.8 101180 100
2007-10-17 06:37:59 51°13.597 2°56.097 3.4 27 12.8 101180 100
2007-10-17 06:38:04 51°13.596 2°56.097 2.5 28 12.8 101180 100
2007-10-17 06:38:09 51°13.596 2°56.097 1.9 14 12.8 101180 100
2007-10-17 06:38:14 51°13.596 2°56.097 2.1 9 12.8 101180 100
2007-10-17 06:38:19 51°13.596 2°56.097 2.1 12 12.8 101180 100
2007-10-17 06:38:24 51°13.596 2°56.097 2.2 357 12.8 101180 100
2007-10-17 06:38:29 51°13.597 2°56.097 2.6 15 12.8 101180 100
2007-10-17 06:38:34 51°13.597 2°56.097 4.9 20 12.8 101180 100
2007-10-17 06:38:39 51°13.597 2°56.097 4.7 17 12.8 101180 100
2007-10-17 06:38:44 51°13.597 2°56.097 4.7 15 12.8 101180 100
2007-10-17 06:38:49 51°13.597 2°56.097 2.8 22 12.8 101180 100
2007-10-17 06:38:54 51°13.597 2°56.097 2.5 3 12.8 101180 100
2007-10-17 06:39:00 51°13.597 2°56.097 1.9 6 12.8 101180 100
2007-10-17 06:39:04 51°13.597 2°56.097 2.3 360 12.8 101180 100
2007-10-17 06:39:09 51°13.597 2°56.097 2.6 5 12.8 101180 100
2007-10-17 06:39:14 51°13.597 2°56.097 3.8 8 12.8 101180 100
2007-10-17 06:39:19 51°13.597 2°56.097 3.5 5 12.8 101180 100
2007-10-17 06:39:24 51°13.597 2°56.097 3.2 10 12.8 101180 100
2007-10-17 06:39:29 51°13.597 2°56.097 4.2 15 12.8 101180 100
2007-10-17 06:39:33 51°13.597 2°56.097 4.7 18 12.8 101180 100
2007-10-17 06:39:39 51°13.597 2°56.097 3.6 4 12.8 101180 100
2007-10-17 06:39:44 51°13.597 2°56.097 4.4 14 12.8 101180 100
2007-10-17 06:39:49 51°13.597 2°56.097 3.8 7 12.8 101180 100
2007-10-17 06:39:53 51°13.597 2°56.097 4.6 6 12.8 101180 100
2007-10-17 06:39:59 51°13.597 2°56.097 5.2 2 12.8 101180 100
2007-10-17 06:40:04 51°13.597 2°56.097 4 3 12.8 101180 100
2007-10-17 06:40:09 51°13.596 2°56.097 4.7 359 12.8 101180 100
2007-10-17 06:40:13 51°13.596 2°56.097 4.3 8 12.8 101180 100
2007-10-17 06:40:19 51°13.596 2°56.097 3.4 1 12.8 101180 100
2007-10-17 06:40:24 51°13.596 2°56.097 3.4 349 12.8 101180 100
2007-10-17 06:40:29 51°13.596 2°56.097 2.8 14 12.8 101180 100
2007-10-17 06:40:33 51°13.596 2°56.097 3.7 19 12.7 101180 100
2007-10-17 06:40:39 51°13.597 2°56.096 2.9 15 12.7 101180 100
2007-10-17 06:40:44 51°13.597 2°56.096 3.1 19 12.8 101180 100
2007-10-17 06:40:49 51°13.598 2°56.096 3.8 15 12.8 101180 100
2007-10-17 06:40:54 51°13.598 2°56.097 2.4 13 12.8 101180 100
2007-10-17 06:40:59 51°13.6 2°56.097 2.2 -999 12.8 101180 100
2007-10-17 06:41:04 51°13.6 2°56.096 2.9 5 12.8 101180 100
2007-10-17 06:41:09 51°13.599 2°56.097 2.9 3 12.8 101180 100
2007-10-17 06:41:14 51°13.599 2°56.097 2.2 13 12.7 101180 100
2007-10-17 06:41:19 51°13.6 2°56.096 2.6 4 12.7 101180 100
2007-10-17 06:41:24 51°13.601 2°56.096 2.3 21 12.8 101180 100
2007-10-17 06:41:29 51°13.601 2°56.096 2.9 13 12.8 101180 100
2007-10-17 06:41:34 51°13.601 2°56.096 3.4 10 12.8 101190 100
2007-10-17 06:41:39 51°13.601 2°56.096 2.9 13 12.8 101190 100
2007-10-17 06:41:44 51°13.6 2°56.096 3.5 359 12.8 101190 100
2007-10-17 06:41:49 51°13.6 2°56.096 2.9 11 12.8 101190 100
2007-10-17 06:41:53 51°13.601 2°56.096 2.1 11 12.8 101180 100
2007-10-17 06:41:59 51°13.603 2°56.096 1.8 38 12.8 101180 100
2007-10-17 06:42:04 51°13.604 2°56.096 1.6 8 12.7 101190 100
2007-10-17 06:42:09 51°13.605 2°56.096 2.5 19 12.7 101190 100
2007-10-17 06:42:14 51°13.605 2°56.096 3.2 19 12.8 101180 100
2007-10-17 06:42:19 51°13.605 2°56.096 1.9 358 12.8 101180 100
2007-10-17 06:42:24 51°13.604 2°56.096 2.2 8 12.8 101190 100
2007-10-17 06:42:29 51°13.604 2°56.096 3.7 19 12.8 101190 100
2007-10-17 06:42:33 51°13.604 2°56.096 3.9 12 12.8 101190 100
2007-10-17 06:42:39 51°13.604 2°56.096 2.9 9 12.8 101190 100
2007-10-17 06:42:44 51°13.604 2°56.096 2.5 10 12.8 101190 100
2007-10-17 06:42:49 51°13.603 2°56.096 2.4 1 12.8 101190 100
2007-10-17 06:42:53 51°13.603 2°56.096 2.6 5 12.8 101190 100
2007-10-17 06:42:59 51°13.603 2°56.096 3.8 3 12.8 101190 100
2007-10-17 06:43:04 51°13.603 2°56.096 3.6 359 12.7 101190 100
2007-10-17 06:43:09 51°13.603 2°56.096 3.6 3 12.7 101190 100
2007-10-17 06:43:14 51°13.603 2°56.096 4.3 7 12.8 101190 100
2007-10-17 06:43:19 51°13.603 2°56.096 3.5 8 12.8 101190 100
2007-10-17 06:43:24 51°13.603 2°56.096 3.6 14 12.8 101190 100
2007-10-17 06:43:29 51°13.603 2°56.096 4.1 15 12.8 101190 100
2007-10-17 06:43:34 51°13.603 2°56.096 4 28 12.8 101180 100
2007-10-17 06:43:39 51°13.603 2°56.096 2.8 20 12.8 101180 100
2007-10-17 06:43:44 51°13.603 2°56.096 3.1 13 12.7 101190 100
2007-10-17 06:43:49 51°13.603 2°56.096 2.7 352 12.7 101190 100
2007-10-17 06:43:54 51°13.603 2°56.096 2.9 2 12.7 101190 100
2007-10-17 06:43:59 51°13.603 2°56.096 3.2 11 12.7 101190 100
2007-10-17 06:44:04 51°13.602 2°56.096 3.5 6 12.8 101180 100
2007-10-17 06:44:09 51°13.602 2°56.096 3.8 355 12.8 101180 100
2007-10-17 06:44:13 51°13.602 2°56.096 2.7 5 12.7 101190 100
2007-10-17 06:44:19 51°13.602 2°56.096 3.3 359 12.7 101190 100
2007-10-17 06:44:24 51°13.602 2°56.096 4.6 11 12.8 101190 100
2007-10-17 06:44:29 51°13.602 2°56.096 4.7 7 12.8 101190 100
2007-10-17 06:44:33 51°13.601 2°56.096 4.4 7 12.7 101190 100
2007-10-17 06:44:39 51°13.596 2°56.096 3.3 4 12.7 101190 100
2007-10-17 06:44:44 51°13.594 2°56.097 3.3 17 12.8 101180 100
2007-10-17 06:44:49 51°13.594 2°56.097 2.8 359 12.8 101180 100
2007-10-17 06:44:54 51°13.595 2°56.097 3.2 350 12.7 101180 100
2007-10-17 06:44:59 51°13.595 2°56.097 2.9 11 12.7 101180 100
2007-10-17 06:45:04 51°13.596 2°56.096 2.9 19 12.7 101180 100
2007-10-17 06:45:09 51°13.597 2°56.096 2.2 351 12.7 101180 100
2007-10-17 06:45:14 51°13.597 2°56.096 2.7 20 12.8 101190 100
2007-10-17 06:45:19 51°13.597 2°56.096 3.1 11 12.8 101190 100
2007-10-17 06:45:24 51°13.597 2°56.096 2.7 358 12.7 101180 100
2007-10-17 06:45:29 51°13.596 2°56.096 3.2 -999 12.7 101180 100
2007-10-17 06:45:34 51°13.596 2°56.096 5 10 12.8 101190 100
2007-10-17 06:45:39 51°13.596 2°56.096 5.3 7 12.8 101190 100
2007-10-17 06:45:44 51°13.597 2°56.096 5 358 12.8 101190 100
2007-10-17 06:45:49 51°13.597 2°56.096 3.5 10 12.8 101190 100
2007-10-17 06:45:53 51°13.597 2°56.096 2.8 9 12.8 101190 100
2007-10-17 06:45:59 51°13.598 2°56.096 3.3 4 12.8 101190 100
2007-10-17 06:46:04 51°13.599 2°56.096 2.7 14 12.8 101180 100
2007-10-17 06:46:09 51°13.599 2°56.096 2.8 358 12.8 101180 100
2007-10-17 06:46:13 51°13.598 2°56.096 3.1 13 12.8 101190 100
2007-10-17 06:46:19 51°13.598 2°56.096 4.3 359 12.8 101190 100
2007-10-17 06:46:24 51°13.6 2°56.096 4.2 2 12.8 101180 100
2007-10-17 06:46:29 51°13.602 2°56.095 2.5 12 12.8 101180 100
2007-10-17 06:46:33 51°13.602 2°56.095 3.3 7 12.8 101190 100
2007-10-17 06:46:39 51°13.602 2°56.095 3.1 15 12.8 101190 100
2007-10-17 06:46:44 51°13.603 2°56.095 4.2 12 12.8 101180 100
2007-10-17 06:46:49 51°13.602 2°56.095 4.4 20 12.8 101180 100
2007-10-17 06:46:53 51°13.602 2°56.095 4.1 7 12.8 101180 100
2007-10-17 06:46:59 51°13.601 2°56.095 3.7 15 12.8 101180 100
2007-10-17 06:47:04 51°13.601 2°56.095 2.7 358 12.8 101180 100
2007-10-17 06:47:09 51°13.6 2°56.095 2.3 3 12.8 101180 100
2007-10-17 06:47:13 51°13.6 2°56.095 2.8 359 12.8 101180 100
2007-10-17 06:47:19 51°13.6 2°56.095 2 4 12.8 101180 100
2007-10-17 06:47:24 51°13.6 2°56.095 1.7 355 12.8 101180 100
2007-10-17 06:47:29 51°13.599 2°56.095 3.8 349 12.8 101180 100
2007-10-17 06:47:33 51°13.599 2°56.095 3.5 351 12.8 101180 100
2007-10-17 06:47:39 51°13.599 2°56.096 3.8 359 12.8 101180 100
2007-10-17 06:47:44 51°13.599 2°56.096 4.3 1 12.8 101180 100
2007-10-17 06:47:49 51°13.599 2°56.096 4 5 12.8 101180 100
2007-10-17 06:47:54 51°13.599 2°56.096 4.1 6 12.8 101190 100
2007-10-17 06:47:59 51°13.599 2°56.096 3.9 9 12.8 101190 100
2007-10-17 06:48:04 51°13.599 2°56.096 3.6 13 12.8 101180 100
2007-10-17 06:48:09 51°13.599 2°56.095 3.1 17 12.8 101180 100
2007-10-17 06:48:13 51°13.598 2°56.095 4.3 358 12.8 101190 100
2007-10-17 06:48:19 51°13.598 2°56.095 3.4 -999 12.8 101190 100
2007-10-17 06:48:24 51°13.598 2°56.095 3.8 348 12.8 101190 100
2007-10-17 06:48:29 51°13.598 2°56.095 2.8 283 12.8 101190 100
2007-10-17 06:48:33 51°13.597 2°56.095 3.1 10 12.8 101180 100
2007-10-17 06:48:39 51°13.598 2°56.095 3.6 353 12.8 101180 100
2007-10-17 06:48:44 51°13.599 2°56.096 3.6 357 12.8 101180 100
2007-10-17 06:48:49 51°13.599 2°56.095 2.4 9 12.8 101180 100
2007-10-17 06:48:53 51°13.599 2°56.095 2.2 12 12.8 101180 100
2007-10-17 06:48:59 51°13.599 2°56.095 4 7 12.8 101180 100
2007-10-17 06:49:04 51°13.599 2°56.095 2.4 18 12.8 101190 100
2007-10-17 06:49:09 51°13.598 2°56.095 2.5 348 12.8 101190 100
2007-10-17 06:49:13 51°13.598 2°56.095 3 357 12.8 101180 100
2007-10-17 06:49:19 51°13.598 2°56.094 3.7 9 12.8 101180 100
2007-10-17 06:49:24 51°13.596 2°56.094 2.6 15 12.8 101180 100
2007-10-17 06:49:29 51°13.595 2°56.094 3.2 8 12.8 101180 100
2007-10-17 06:49:33 51°13.596 2°56.094 2.4 4 12.8 101180 100
2007-10-17 06:49:39 51°13.597 2°56.094 2 1 12.8 101180 100
2007-10-17 06:49:44 51°13.597 2°56.094 2 358 12.8 101180 100
2007-10-17 06:49:49 51°13.598 2°56.094 2.4 360 12.8 101180 100
2007-10-17 06:49:54 51°13.598 2°56.094 1.4 22 12.8 101180 100
2007-10-17 06:49:59 51°13.598 2°56.093 1.9 11 12.8 101180 100
2007-10-17 06:50:04 51°13.598 2°56.093 1.3 9 12.8 101190 100
2007-10-17 06:50:09 51°13.598 2°56.093 3.3 349 12.8 101190 100
2007-10-17 06:50:14 51°13.598 2°56.093 4 350 12.8 101180 100
2007-10-17 06:50:19 51°13.598 2°56.093 4.3 1 12.8 101180 100
2007-10-17 06:50:24 51°13.598 2°56.093 4.8 1 12.8 101180 100
2007-10-17 06:50:29 51°13.598 2°56.093 3.9 359 12.8 101180 100
2007-10-17 06:50:34 51°13.598 2°56.093 4.6 12 12.8 101180 100
2007-10-17 06:50:39 51°13.598 2°56.093 3.9 356 12.8 101180 100
2007-10-17 06:50:44 51°13.598 2°56.093 3.5 -999 12.8 101180 100
2007-10-17 06:50:49 51°13.598 2°56.093 5 17 12.8 101180 100
2007-10-17 06:50:54 51°13.598 2°56.093 4.2 355 12.8 101180 100
2007-10-17 06:50:59 51°13.598 2°56.093 2.6 5 12.8 101180 100
2007-10-17 06:51:04 51°13.598 2°56.093 2.4 3 12.8 101190 100
2007-10-17 06:51:09 51°13.597 2°56.093 3.3 14 12.8 101190 100
2007-10-17 06:51:13 51°13.597 2°56.093 3 8 12.8 101190 100
2007-10-17 06:51:19 51°13.597 2°56.093 4.7 2 12.8 101190 100
2007-10-17 06:51:24 51°13.597 2°56.093 3.8 14 12.8 101190 100
2007-10-17 06:51:29 51°13.597 2°56.093 3.7 14 12.8 101190 100
2007-10-17 06:51:34 51°13.597 2°56.093 3.5 4 12.8 101190 100
2007-10-17 06:51:39 51°13.597 2°56.093 3.9 -999 12.8 101190 100
2007-10-17 06:51:44 51°13.597 2°56.093 2.9 22 12.8 101180 100
2007-10-17 06:51:49 51°13.597 2°56.092 3 22 12.8 101180 100
2007-10-17 06:51:53 51°13.597 2°56.092 2.4 346 12.8 101180 100
2007-10-17 06:51:59 51°13.597 2°56.093 2.6 354 12.8 101180 100
2007-10-17 06:52:04 51°13.597 2°56.092 2.3 353 12.8 101190 100
2007-10-17 06:52:09 51°13.597 2°56.092 2.2 6 12.8 101190 100
2007-10-17 06:52:13 51°13.597 2°56.092 2.5 3 12.8 101180 100
2007-10-17 06:52:19 51°13.597 2°56.092 2.4 358 12.8 101180 100
2007-10-17 06:52:24 51°13.597 2°56.092 2.6 3 12.8 101190 100
2007-10-17 06:52:29 51°13.597 2°56.092 1.8 13 12.8 101190 100
2007-10-17 06:52:33 51°13.597 2°56.092 1.9 5 12.8 101190 100
2007-10-17 06:52:39 51°13.596 2°56.091 1.7 355 12.8 101190 100
2007-10-17 06:52:44 51°13.596 2°56.091 1.8 340 12.8 101190 100
2007-10-17 06:52:49 51°13.596 2°56.091 2.5 357 12.8 101190 100
2007-10-17 06:52:54 51°13.596 2°56.091 1.8 4 12.8 101190 100
2007-10-17 06:52:59 51°13.596 2°56.091 3 355 12.8 101190 100
2007-10-17 06:53:04 51°13.596 2°56.091 2.4 354 12.8 101190 100
2007-10-17 06:53:09 51°13.596 2°56.09 1.5 348 12.8 101190 100
2007-10-17 06:53:14 51°13.596 2°56.09 1.8 359 12.8 101190 100
2007-10-17 06:53:20 51°13.595 2°56.09 2.6 350 12.8 101190 100
2007-10-17 06:53:25 51°13.595 2°56.091 3.1 354 12.8 101190 100
2007-10-17 06:53:29 51°13.594 2°56.091 2.8 359 12.8 101190 100
2007-10-17 06:53:34 51°13.593 2°56.093 3.3 345 12.8 101190 100
2007-10-17 06:53:39 51°13.592 2°56.094 4.4 14 12.8 101190 100
2007-10-17 06:53:44 51°13.591 2°56.096 2.9 357 12.8 101190 100
2007-10-17 06:53:49 51°13.589 2°56.099 2.5 341 12.8 101190 100
2007-10-17 06:53:54 51°13.587 2°56.102 3.2 354 12.8 101190 100
2007-10-17 06:53:59 51°13.585 2°56.105 3.5 349 12.8 101190 100
2007-10-17 06:54:04 51°13.582 2°56.109 3.3 341 12.8 101190 100
2007-10-17 06:54:09 51°13.579 2°56.113 4.1 2 12.8 101190 100
2007-10-17 06:54:14 51°13.576 2°56.117 3.6 345 12.8 101190 100
2007-10-17 06:54:19 51°13.572 2°56.121 2.4 343 12.8 101190 100
2007-10-17 06:54:24 51°13.569 2°56.125 3.3 343 12.8 101190 100
2007-10-17 06:54:29 51°13.565 2°56.13 5 348 12.8 101190 100
2007-10-17 06:54:33 51°13.562 2°56.134 3.4 350 12.8 101190 100
2007-10-17 06:54:39 51°13.557 2°56.14 3.1 344 12.8 101190 100
2007-10-17 06:54:44 51°13.554 2°56.145 3 357 12.8 101190 100
2007-10-17 06:54:49 51°13.55 2°56.15 3.4 339 12.8 101190 100
2007-10-17 06:54:54 51°13.546 2°56.155 4.1 352 12.8 101190 100
2007-10-17 06:54:59 51°13.542 2°56.16 3.9 345 12.8 101190 100
2007-10-17 06:55:04 51°13.539 2°56.166 5.4 352 12.8 101190 100
2007-10-17 06:55:09 51°13.536 2°56.171 5.3 7 12.8 101190 100
2007-10-17 06:55:13 51°13.535 2°56.176 4.6 -999 12.8 101190 100
2007-10-17 06:55:19 51°13.532 2°56.183 3.4 1 12.8 101190 100
2007-10-17 06:55:24 51°13.53 2°56.189 2.5 8 12.8 101190 100
2007-10-17 06:55:29 51°13.529 2°56.195 2.4 341 12.8 101190 100
2007-10-17 06:55:33 51°13.528 2°56.2 1.7 354 12.8 101180 100
2007-10-17 06:55:39 51°13.527 2°56.208 1.6 353 12.8 101180 100
2007-10-17 06:55:44 51°13.527 2°56.214 1.5 10 12.8 101180 100
2007-10-17 06:55:49 51°13.526 2°56.22 3.4 14 12.8 101180 100
2007-10-17 06:55:54 51°13.527 2°56.226 5.5 13 12.8 101190 100
2007-10-17 06:55:59 51°13.528 2°56.232 3.7 17 12.8 101190 100
2007-10-17 06:56:04 51°13.529 2°56.236 3.4 24 12.8 101190 100
2007-10-17 06:56:09 51°13.531 2°56.24 2.4 18 12.8 101190 100
2007-10-17 06:56:13 51°13.532 2°56.242 3 19 12.8 101190 100
2007-10-17 06:56:19 51°13.532 2°56.243 3.4 31 12.8 101190 100
2007-10-17 06:56:24 51°13.531 2°56.243 3.2 23 12.8 101190 100
2007-10-17 06:56:29 51°13.53 2°56.241 3.7 24 12.8 101190 100
2007-10-17 06:56:34 51°13.53 2°56.239 4.4 26 12.8 101190 100
2007-10-17 06:56:39 51°13.529 2°56.236 2.5 21 12.8 101190 100
2007-10-17 06:56:44 51°13.528 2°56.234 1.5 20 12.8 101190 100
2007-10-17 06:56:50 51°13.527 2°56.231 1.8 40 12.8 101190 100
2007-10-17 06:56:56 51°13.526 2°56.229 1.7 30 12.9 101190 100
2007-10-17 06:57:01 51°13.526 2°56.229 3 59 12.9 101190 100
2007-10-17 06:57:07 51°13.527 2°56.229 2.8 18 12.8 101190 100
2007-10-17 06:57:13 51°13.529 2°56.231 3.1 34 12.8 101190 100
2007-10-17 06:57:18 51°13.53 2°56.233 2.4 25 12.8 101190 100
2007-10-17 06:57:23 51°13.532 2°56.235 1.7 56 12.8 101190 100
2007-10-17 06:57:28 51°13.534 2°56.236 2.2 21 12.8 101190 100
2007-10-17 06:57:32 51°13.536 2°56.237 2.7 57 12.8 101190 100
2007-10-17 06:57:37 51°13.538 2°56.238 3.2 25 12.8 101190 100
2007-10-17 06:57:43 51°13.54 2°56.24 2.6 51 12.8 101190 100
2007-10-17 06:57:48 51°13.542 2°56.24 2.9 28 12.8 101190 100
2007-10-17 06:57:52 51°13.543 2°56.241 3 51 12.8 101190 100
2007-10-17 06:57:57 51°13.544 2°56.241 4.6 25 12.8 101190 100
2007-10-17 06:58:02 51°13.544 2°56.241 3.3 56 12.8 101190 100
2007-10-17 06:58:07 51°13.544 2°56.24 3 25 12.8 101190 100
2007-10-17 06:58:12 51°13.543 2°56.24 2.3 58 12.8 101190 100
2007-10-17 06:58:17 51°13.541 2°56.239 2.7 26 12.9 101200 100
2007-10-17 06:58:21 51°13.539 2°56.239 4.4 57 12.9 101200 100
2007-10-17 06:58:27 51°13.536 2°56.238 3.4 20 12.8 101200 100
2007-10-17 06:58:32 51°13.533 2°56.238 4.2 58 12.8 101200 100
2007-10-17 06:58:37 51°13.529 2°56.238 4.8 25 12.9 101200 100
2007-10-17 06:58:42 51°13.526 2°56.238 3.4 58 12.9 101200 100
2007-10-17 06:58:47 51°13.522 2°56.238 4.4 26 13 101200 100
2007-10-17 06:58:53 51°13.519 2°56.237 6.4 59 13 101200 100
2007-10-17 06:58:57 51°13.518 2°56.237 3.4 22 13 101200 100
2007-10-17 06:59:03 51°13.517 2°56.237 4.3 56 13 101200 100
2007-10-17 06:59:07 51°13.517 2°56.237 3.8 23 13 101190 100
2007-10-17 06:59:13 51°13.519 2°56.235 3.5 51 13 101190 100
2007-10-17 06:59:18 51°13.521 2°56.232 2.7 22 13 101200 100
2007-10-17 06:59:23 51°13.524 2°56.229 1.8 61 13 101200 100
2007-10-17 06:59:28 51°13.527 2°56.224 2.5 260 13 101200 100
2007-10-17 06:59:33 51°13.53 2°56.219 2.2 64 13 101200 100
2007-10-17 06:59:37 51°13.533 2°56.214 2.1 254 13 101200 100
2007-10-17 06:59:42 51°13.536 2°56.206 2.5 303 13 101200 100
2007-10-17 06:59:47 51°13.539 2°56.198 2.5 329 13 101200 100
2007-10-17 06:59:52 51°13.542 2°56.19 3.6 301 13 101200 100
2007-10-17 06:59:57 51°13.545 2°56.181 3.2 21 13 101200 100
2007-10-17 07:00:02 51°13.548 2°56.172 2.3 306 13 101200 100
2007-10-17 07:00:07 51°13.551 2°56.162 3.2 22 13 101190 100
2007-10-17 07:00:12 51°13.555 2°56.152 2.7 306 13 101190 100
2007-10-17 07:00:16 51°13.557 2°56.144 1.6 23 13 101190 100
2007-10-17 07:00:21 51°13.562 2°56.133 2 300 13 101190 100
2007-10-17 07:00:26 51°13.566 2°56.122 1.6 23 13 101200 100
2007-10-17 07:00:31 51°13.57 2°56.111 3.1 276 13 101200 100
2007-10-17 07:00:36 51°13.574 2°56.1 3.3 22 13 101200 100
2007-10-17 07:00:40 51°13.578 2°56.091 3 301 13 101200 100
2007-10-17 07:00:45 51°13.582 2°56.079 3 251 13 101190 100
2007-10-17 07:00:50 51°13.586 2°56.067 3.2 308 13 101190 100
2007-10-17 07:00:55 51°13.591 2°56.056 3.8 27 13 101190 100
2007-10-17 07:01:00 51°13.595 2°56.044 3.5 309 13 101190 100
2007-10-17 07:01:05 51°13.6 2°56.032 4.3 25 13 101190 100
2007-10-17 07:01:09 51°13.603 2°56.023 4 301 13 101190 100
2007-10-17 07:01:14 51°13.608 2°56.011 3.8 318 13 101190 100
2007-10-17 07:01:19 51°13.613 2°55.999 5.1 303 13 101190 100
2007-10-17 07:01:24 51°13.617 2°55.987 3.7 254 13 101190 100
2007-10-17 07:01:29 51°13.622 2°55.975 3.1 280 13 101190 100
2007-10-17 07:01:34 51°13.626 2°55.963 4.2 26 13 101200 100
2007-10-17 07:01:39 51°13.631 2°55.951 3.1 303 13 101200 100
2007-10-17 07:01:44 51°13.635 2°55.939 3.2 319 13 101190 100
2007-10-17 07:01:49 51°13.64 2°55.928 2.1 304 13 101190 100
2007-10-17 07:01:54 51°13.644 2°55.916 2.6 19 13 101190 100
2007-10-17 07:01:59 51°13.649 2°55.905 3.1 309 13 101190 100
2007-10-17 07:02:04 51°13.653 2°55.893 3.3 317 13 101190 100
2007-10-17 07:02:09 51°13.658 2°55.882 2.7 331 13 101190 100
2007-10-17 07:02:13 51°13.661 2°55.873 4.5 25 13 101190 100
2007-10-17 07:02:19 51°13.667 2°55.859 3.7 305 13 101190 100
2007-10-17 07:02:24 51°13.671 2°55.848 3.6 20 13 101190 100
2007-10-17 07:02:29 51°13.676 2°55.837 4.2 303 13 101190 100
2007-10-17 07:02:34 51°13.681 2°55.826 4.6 247 13 101190 100
2007-10-17 07:02:39 51°13.686 2°55.815 3 302 13 101190 100
2007-10-17 07:02:44 51°13.691 2°55.804 3.4 251 13 101190 100
2007-10-17 07:02:49 51°13.696 2°55.794 3.1 308 13 101190 100
2007-10-17 07:02:53 51°13.7 2°55.786 2.1 22 13 101190 100
2007-10-17 07:02:59 51°13.706 2°55.773 3.6 303 13 101190 100
2007-10-17 07:03:04 51°13.712 2°55.763 3.6 248 13 101190 100
2007-10-17 07:03:09 51°13.718 2°55.753 4.4 302 13 101190 100
2007-10-17 07:03:13 51°13.722 2°55.745 2.8 258 13 101190 100
2007-10-17 07:03:19 51°13.729 2°55.732 3.6 303 13 101190 100
2007-10-17 07:03:24 51°13.736 2°55.722 2.6 255 13 101190 100
2007-10-17 07:03:29 51°13.742 2°55.712 2.9 284 13 101190 100
2007-10-17 07:03:33 51°13.747 2°55.705 1.7 317 13 101190 100
2007-10-17 07:03:39 51°13.756 2°55.695 2 308 13 101190 100
2007-10-17 07:03:44 51°13.763 2°55.687 3 25 12.9 101190 100
2007-10-17 07:03:49 51°13.77 2°55.679 1.5 306 12.9 101190 100
2007-10-17 07:03:54 51°13.778 2°55.671 0.8 268 13 101200 100
2007-10-17 07:03:59 51°13.785 2°55.664 2.7 302 13 101200 100
2007-10-17 07:04:04 51°13.793 2°55.657 1.8 244 12.9 101190 100
2007-10-17 07:04:09 51°13.801 2°55.652 2.7 304 12.9 101190 100
2007-10-17 07:04:14 51°13.809 2°55.645 3.8 28 12.9 101190 100
2007-10-17 07:04:19 51°13.817 2°55.64 3.5 62 12.9 101190 100
2007-10-17 07:04:24 51°13.825 2°55.633 2.9 25 12.9 101190 100
2007-10-17 07:04:29 51°13.833 2°55.628 2.7 52 12.9 101190 100
2007-10-17 07:04:33 51°13.839 2°55.622 2.1 262 12.9 101190 100
2007-10-17 07:04:39 51°13.849 2°55.615 1.3 56 12.9 101190 100
2007-10-17 07:04:44 51°13.857 2°55.609 1 29 12.9 101200 100
2007-10-17 07:04:49 51°13.864 2°55.602 0.7 52 12.9 101200 100
2007-10-17 07:04:54 51°13.873 2°55.597 0.9 23 12.9 101190 100
2007-10-17 07:04:59 51°13.881 2°55.591 2.4 309 12.9 101190 100
2007-10-17 07:05:04 51°13.889 2°55.585 1.9 250 12.9 101190 100
2007-10-17 07:05:09 51°13.898 2°55.578 1.7 305 12.9 101190 100
2007-10-17 07:05:13 51°13.905 2°55.573 1.3 20 12.9 101190 100
2007-10-17 07:05:19 51°13.916 2°55.566 2.3 303 12.9 101190 100
2007-10-17 07:05:24 51°13.925 2°55.56 1.5 260 12.9 101190 100
2007-10-17 07:05:29 51°13.935 2°55.553 1.5 80 12.9 101190 100
2007-10-17 07:05:34 51°13.944 2°55.547 1 22 12.9 101190 100
2007-10-17 07:05:39 51°13.954 2°55.54 0.9 304 12.9 101190 100
2007-10-17 07:05:44 51°13.964 2°55.534 1.8 27 12.9 101190 100
2007-10-17 07:05:49 51°13.974 2°55.527 2.1 305 12.9 101190 100
2007-10-17 07:05:54 51°13.984 2°55.521 1.3 25 12.9 101190 100
2007-10-17 07:05:59 51°13.994 2°55.514 2.7 303 12.9 101190 100
2007-10-17 07:06:04 51°14.005 2°55.507 2.5 25 12.9 101190 100
2007-10-17 07:06:09 51°14.016 2°55.5 2.6 301 12.9 101190 100
2007-10-17 07:06:14 51°14.027 2°55.492 2.9 322 12.9 101190 100
2007-10-17 07:06:19 51°14.039 2°55.484 3.3 305 12.9 101190 100
2007-10-17 07:06:24 51°14.05 2°55.476 2.7 315 12.9 101190 100
2007-10-17 07:06:29 51°14.062 2°55.467 2.5 302 12.9 101190 100
2007-10-17 07:06:33 51°14.071 2°55.461 2.1 315 12.9 101190 100
2007-10-17 07:06:39 51°14.085 2°55.45 3.5 309 12.9 101190 100
2007-10-17 07:06:44 51°14.097 2°55.441 2.5 263 12.9 101190 100
2007-10-17 07:06:49 51°14.109 2°55.432 2.4 304 12.9 101190 100
2007-10-17 07:06:54 51°14.121 2°55.422 3.4 19 12.9 101190 100
2007-10-17 07:06:59 51°14.133 2°55.412 2.7 310 12.9 101190 100
2007-10-17 07:07:04 51°14.145 2°55.402 2.7 250 13 101190 100
2007-10-17 07:07:09 51°14.156 2°55.391 4.2 308 13 101190 100
2007-10-17 07:07:15 51°14.171 2°55.378 3.5 18 12.9 101180 100
2007-10-17 07:07:20 51°14.182 2°55.366 5.1 305 12.9 101180 100
2007-10-17 07:07:26 51°14.196 2°55.353 4.6 248 12.9 101190 100
2007-10-17 07:07:32 51°14.21 2°55.338 5 285 12.9 101190 100
2007-10-17 07:07:37 51°14.221 2°55.323 4.7 25 12.9 101190 100
2007-10-17 07:07:42 51°14.232 2°55.308 3.7 301 12.9 101190 100
2007-10-17 07:07:48 51°14.245 2°55.29 5 23 12.9 101190 100
2007-10-17 07:07:53 51°14.256 2°55.274 4.4 306 12.9 101190 100
2007-10-17 07:07:57 51°14.265 2°55.261 4.8 247 12.9 101190 100
2007-10-17 07:08:02 51°14.276 2°55.244 5.1 303 12.9 101190 100
2007-10-17 07:08:07 51°14.286 2°55.226 5.8 29 13 101180 100
2007-10-17 07:08:12 51°14.296 2°55.207 4.8 308 13 101180 100
2007-10-17 07:08:17 51°14.306 2°55.188 5.4 26 12.9 101190 100
2007-10-17 07:08:21 51°14.314 2°55.171 6.8 308 12.9 101190 100
2007-10-17 07:08:26 51°14.324 2°55.151 5.4 26 13 101190 100
2007-10-17 07:08:31 51°14.333 2°55.13 7.5 303 13 101190 100
2007-10-17 07:08:36 51°14.343 2°55.109 6 21 12.9 101180 100
2007-10-17 07:08:41 51°14.353 2°55.087 7.3 304 12.9 101180 100
2007-10-17 07:08:46 51°14.364 2°55.064 8.8 23 13 101180 100
2007-10-17 07:08:51 51°14.373 2°55.041 10.5 307 13 101180 100
2007-10-17 07:08:56 51°14.383 2°55.018 9.1 21 13 101170 100
2007-10-17 07:09:00 51°14.392 2°55 8.4 301 13 101170 100
2007-10-17 07:09:05 51°14.402 2°54.977 9.7 25 13 101170 100
2007-10-17 07:09:10 51°14.412 2°54.955 8.5 307 13 101170 100
2007-10-17 07:09:15 51°14.424 2°54.934 9.4 246 13 101170 100
2007-10-17 07:09:20 51°14.437 2°54.915 7.8 305 13 101170 100
2007-10-17 07:09:25 51°14.451 2°54.898 6.3 251 13 101180 100
2007-10-17 07:09:30 51°14.466 2°54.884 4 284 13 101180 100
2007-10-17 07:09:34 51°14.479 2°54.874 3.9 253 13 101170 100
2007-10-17 07:09:40 51°14.497 2°54.859 5 301 13 101170 100
2007-10-17 07:09:45 51°14.513 2°54.847 4.8 260 13 101180 100
2007-10-17 07:09:50 51°14.528 2°54.834 4.5 302 13 101180 100
2007-10-17 07:09:55 51°14.544 2°54.822 5.4 253 13 101180 100
2007-10-17 07:10:00 51°14.56 2°54.81 5.5 307 13 101180 100
2007-10-17 07:10:05 51°14.576 2°54.798 4.6 255 13 101170 100
2007-10-17 07:10:10 51°14.592 2°54.789 3.2 301 13 101170 100
2007-10-17 07:10:14 51°14.605 2°54.781 3.9 260 13 101170 100
2007-10-17 07:10:19 51°14.622 2°54.773 3.4 308 13 101170 100
2007-10-17 07:10:24 51°14.638 2°54.764 4.3 253 13 101180 100
2007-10-17 07:10:30 51°14.658 2°54.756 2.8 302 13 101180 100
2007-10-17 07:10:34 51°14.672 2°54.751 2.5 264 13 101170 100
2007-10-17 07:10:39 51°14.688 2°54.744 2.1 303 13 101170 100
2007-10-17 07:10:45 51°14.709 2°54.737 3.2 260 13 101180 100
2007-10-17 07:10:49 51°14.722 2°54.731 4.1 308 13 101180 100
2007-10-17 07:10:54 51°14.738 2°54.72 4.2 263 13 101180 100
2007-10-17 07:11:00 51°14.757 2°54.707 4.1 307 13 101180 100
2007-10-17 07:11:03 51°14.765 2°54.698 6.5 254 13 101180 100
2007-10-17 07:11:09 51°14.783 2°54.682 5.8 303 13 101180 100
2007-10-17 07:11:14 51°14.798 2°54.666 6.3 253 13 101180 100
2007-10-17 07:11:20 51°14.815 2°54.647 5.9 303 13 101180 100
2007-10-17 07:11:25 51°14.829 2°54.63 7.9 250 13 101170 100
2007-10-17 07:11:30 51°14.843 2°54.613 6.6 281 13 101170 100
2007-10-17 07:11:34 51°14.854 2°54.599 5.9 250 13 101180 100
2007-10-17 07:11:40 51°14.87 2°54.578 5.3 305 13 101180 100
2007-10-17 07:11:45 51°14.884 2°54.56 6.2 254 13 101170 100
2007-10-17 07:11:50 51°14.898 2°54.543 5.9 309 13 101170 100
2007-10-17 07:11:54 51°14.909 2°54.529 7.3 253 13 101170 100
2007-10-17 07:11:59 51°14.923 2°54.513 8.5 307 13 101170 100
2007-10-17 07:12:05 51°14.94 2°54.493 9.4 254 13 101170 100
2007-10-17 07:12:10 51°14.955 2°54.477 6 303 13 101170 100
2007-10-17 07:12:14 51°14.966 2°54.465 5.6 257 13 101180 100
2007-10-17 07:12:19 51°14.981 2°54.45 6 302 13 101180 100
2007-10-17 07:12:25 51°14.999 2°54.433 4.9 253 13 101170 100
2007-10-17 07:12:30 51°15.014 2°54.418 5.7 303 13 101170 100
2007-10-17 07:12:34 51°15.026 2°54.407 4.4 251 13 101170 100
2007-10-17 07:12:40 51°15.043 2°54.39 5.1 309 13 101170 100
2007-10-17 07:12:44 51°15.055 2°54.379 7.5 257 13.1 101180 100
2007-10-17 07:12:50 51°15.073 2°54.362 6 301 13.1 101180 100
2007-10-17 07:12:54 51°15.085 2°54.35 8.5 253 13.1 101170 100
2007-10-17 07:13:00 51°15.103 2°54.332 7 304 13.1 101170 100
2007-10-17 07:13:04 51°15.115 2°54.32 9.3 256 13.1 101180 100
2007-10-17 07:13:10 51°15.132 2°54.301 11.2 308 13.1 101180 100
2007-10-17 07:13:14 51°15.144 2°54.288 10.1 257 13.1 101180 100
2007-10-17 07:13:19 51°15.158 2°54.272 8.1 304 13.1 101180 100
2007-10-17 07:13:25 51°15.176 2°54.254 6.5 254 13.1 101170 100
2007-10-17 07:13:29 51°15.188 2°54.242 6.4 282 13.1 101170 100
2007-10-17 07:13:34 51°15.204 2°54.228 5.9 256 13.1 101180 100
2007-10-17 07:13:39 51°15.219 2°54.214 8.7 308 13.1 101180 100
2007-10-17 07:13:45 51°15.238 2°54.198 8.4 256 13.1 101180 100
2007-10-17 07:13:50 51°15.253 2°54.186 6.4 302 13.1 101180 100
2007-10-17 07:13:54 51°15.266 2°54.176 5.5 262 13.1 101170 100
2007-10-17 07:14:00 51°15.285 2°54.163 3.7 304 13.1 101170 100
2007-10-17 07:14:05 51°15.301 2°54.153 3.2 265 13.1 101180 100
2007-10-17 07:14:09 51°15.315 2°54.147 3.7 305 13.1 101180 100
2007-10-17 07:14:14 51°15.331 2°54.137 3.1 262 13.1 101180 100
2007-10-17 07:14:19 51°15.348 2°54.13 3 308 13.1 101180 100
2007-10-17 07:14:25 51°15.367 2°54.121 2.8 267 13.1 101180 100
2007-10-17 07:14:30 51°15.384 2°54.114 4.5 303 13.1 101180 100
2007-10-17 07:14:34 51°15.398 2°54.109 3.9 262 13.1 101170 100
2007-10-17 07:14:39 51°15.414 2°54.103 3.1 310 13.1 101170 100
2007-10-17 07:14:45 51°15.434 2°54.096 3.1 272 13.1 101180 100
2007-10-17 07:14:49 51°15.448 2°54.092 5.4 62 13.1 101180 100
2007-10-17 07:14:54 51°15.465 2°54.085 4.7 266 13.1 101180 100
2007-10-17 07:15:00 51°15.484 2°54.078 4.3 304 13.1 101180 100
2007-10-17 07:15:04 51°15.498 2°54.072 2.9 264 13.1 101170 100
2007-10-17 07:15:10 51°15.518 2°54.064 3.8 302 13.1 101170 100
2007-10-17 07:15:14 51°15.531 2°54.059 3.8 261 13.1 101180 100
2007-10-17 07:15:19 51°15.548 2°54.052 4.6 301 13.1 101180 100
2007-10-17 07:15:25 51°15.568 2°54.043 3 267 13.1 101180 100
2007-10-17 07:15:30 51°15.584 2°54.036 3.6 279 13.1 101180 100
2007-10-17 07:15:34 51°15.597 2°54.029 3.4 262 13.1 101180 100
2007-10-17 07:15:39 51°15.614 2°54.021 4.3 305 13.1 101180 100
2007-10-17 07:15:45 51°15.633 2°54.011 4.3 260 13.2 101180 100
2007-10-17 07:15:50 51°15.65 2°54.003 3.1 309 13.2 101180 100
2007-10-17 07:15:54 51°15.663 2°53.997 3.3 264 13.2 101180 100
2007-10-17 07:15:59 51°15.68 2°53.989 3 303 13.2 101180 100
2007-10-17 07:16:05 51°15.7 2°53.981 3.3 261 13.2 101180 100
2007-10-17 07:16:09 51°15.714 2°53.975 3.3 303 13.2 101180 100
2007-10-17 07:16:13 51°15.727 2°53.97 2.6 262 13.2 101180 100
2007-10-17 07:16:20 51°15.75 2°53.961 2.8 303 13.2 101180 100
2007-10-17 07:16:25 51°15.767 2°53.955 4 262 13.2 101180 100
2007-10-17 07:16:29 51°15.781 2°53.95 3.7 309 13.2 101180 100
2007-10-17 07:16:33 51°15.795 2°53.945 3.6 264 13.2 101170 100
2007-10-17 07:16:37 51°15.808 2°53.94 3.8 303 13.2 101170 100
2007-10-17 07:16:45 51°15.835 2°53.929 5.8 262 13.2 101180 100
2007-10-17 07:16:49 51°15.848 2°53.923 4.5 308 13.2 101180 100
2007-10-17 07:16:53 51°15.862 2°53.919 4.1 269 13.2 101180 100
2007-10-17 07:16:59 51°15.882 2°53.914 5.2 59 13.2 101180 100
2007-10-17 07:17:04 51°15.9 2°53.911 3.3 22 13.2 101180 100
2007-10-17 07:17:09 51°15.917 2°53.911 2.6 306 13.2 101180 100
2007-10-17 07:17:14 51°15.934 2°53.91 2.8 22 13.2 101180 100
2007-10-17 07:17:19 51°15.951 2°53.912 2 60 13.2 101180 100
2007-10-17 07:17:25 51°15.972 2°53.914 1.8 26 13.2 101180 100
2007-10-17 07:17:29 51°15.986 2°53.916 1.8 81 13.2 101180 100
2007-10-17 07:17:34 51°16.003 2°53.92 2.1 25 13.2 101180 100
2007-10-17 07:17:39 51°16.02 2°53.924 1.9 52 13.2 101180 100
2007-10-17 07:17:45 51°16.04 2°53.933 2.5 45 13.3 101180 100
2007-10-17 07:17:50 51°16.055 2°53.943 2.4 39 13.3 101180 100
2007-10-17 07:17:53 51°16.064 2°53.951 3.4 36 13.3 101180 100
2007-10-17 07:17:59 51°16.08 2°53.969 4.2 23 13.3 101180 100
2007-10-17 07:18:05 51°16.095 2°53.99 4.5 23 13.3 101180 100
2007-10-17 07:18:09 51°16.104 2°54.006 5.6 24 13.3 101180 100
2007-10-17 07:18:13 51°16.113 2°54.022 5.2 23 13.3 101180 100
2007-10-17 07:18:20 51°16.129 2°54.049 5.2 23 13.3 101180 100
2007-10-17 07:18:25 51°16.14 2°54.068 4.8 31 13.3 101170 100
2007-10-17 07:18:29 51°16.15 2°54.081 4.8 31 13.3 101170 100
2007-10-17 07:18:33 51°16.158 2°54.094 4.3 39 13.3 101170 100
2007-10-17 07:18:40 51°16.174 2°54.112 4.2 35 13.3 101170 100
2007-10-17 07:18:45 51°16.184 2°54.125 3.6 33 13.3 101170 100
2007-10-17 07:18:49 51°16.191 2°54.135 5 36 13.3 101170 100
2007-10-17 07:18:54 51°16.201 2°54.146 5.4 32 13.3 101170 100
2007-10-17 07:18:59 51°16.208 2°54.159 5.9 27 13.3 101170 100
2007-10-17 07:19:04 51°16.213 2°54.173 7.8 31 13.4 101180 100
2007-10-17 07:19:09 51°16.218 2°54.186 7.2 23 13.4 101180 100
2007-10-17 07:19:13 51°16.22 2°54.197 7.1 19 13.4 101170 100
2007-10-17 07:19:19 51°16.223 2°54.212 8.5 21 13.4 101170 100
2007-10-17 07:19:24 51°16.225 2°54.224 8.5 26 13.4 101170 100
2007-10-17 07:19:29 51°16.227 2°54.235 7.8 28 13.4 101170 100
2007-10-17 07:19:34 51°16.229 2°54.245 7.6 26 13.4 101160 100
2007-10-17 07:19:39 51°16.231 2°54.255 6.8 29 13.4 101160 100
2007-10-17 07:19:45 51°16.234 2°54.266 6.8 33 13.4 101160 100
2007-10-17 07:19:49 51°16.236 2°54.273 7.8 35 13.4 101160 100
2007-10-17 07:19:53 51°16.238 2°54.279 7.3 36 13.4 101170 100
2007-10-17 07:20:00 51°16.243 2°54.288 7.9 39 13.4 101170 100
2007-10-17 07:20:04 51°16.245 2°54.294 7.9 41 13.4 101170 100
2007-10-17 07:20:09 51°16.248 2°54.299 8.5 42 13.4 101170 100
2007-10-17 07:20:13 51°16.25 2°54.303 7.9 41 13.4 101170 100
2007-10-17 07:20:19 51°16.252 2°54.307 7.7 43 13.4 101170 100
2007-10-17 07:20:25 51°16.255 2°54.311 7.7 41 13.4 101170 100
2007-10-17 07:20:29 51°16.256 2°54.313 8.2 39 13.4 101170 100
2007-10-17 07:20:33 51°16.257 2°54.314 8.4 38 13.4 101170 100
2007-10-17 07:20:40 51°16.258 2°54.316 7.1 38 13.4 101170 100
2007-10-17 07:20:45 51°16.259 2°54.317 9.2 38 13.4 101170 100
2007-10-17 07:20:49 51°16.26 2°54.318 9.6 41 13.4 101170 100
2007-10-17 07:20:53 51°16.26 2°54.318 9.3 38 13.4 101170 100
2007-10-17 07:21:00 51°16.261 2°54.32 9 37 13.4 101170 100
2007-10-17 07:21:05 51°16.262 2°54.321 8.8 33 13.4 101160 100
2007-10-17 07:21:09 51°16.263 2°54.321 8.6 35 13.4 101160 100
2007-10-17 07:21:14 51°16.263 2°54.322 9.6 35 13.4 101170 100
2007-10-17 07:21:18 51°16.264 2°54.323 9.8 37 13.4 101170 100
2007-10-17 07:21:25 51°16.265 2°54.324 10.1 35 13.4 101180 100
2007-10-17 07:21:30 51°16.266 2°54.325 9.7 33 13.4 101180 100
2007-10-17 07:21:34 51°16.267 2°54.325 9.3 34 13.4 101160 100
2007-10-17 07:21:39 51°16.267 2°54.326 9.8 32 13.4 101160 100
2007-10-17 07:21:45 51°16.268 2°54.327 8.8 33 13.4 101160 100
2007-10-17 07:21:50 51°16.269 2°54.328 8.7 34 13.4 101160 100
2007-10-17 07:21:53 51°16.269 2°54.328 9.1 30 13.4 101160 100
2007-10-17 07:22:00 51°16.27 2°54.33 9.8 27 13.4 101160 100
2007-10-17 07:22:04 51°16.271 2°54.33 10 26 13.4 101160 100
2007-10-17 07:22:09 51°16.272 2°54.331 8.8 28 13.4 101160 100
2007-10-17 07:22:14 51°16.272 2°54.332 9.4 29 13.4 101170 100
2007-10-17 07:22:19 51°16.273 2°54.333 9 26 13.4 101170 100
2007-10-17 07:22:25 51°16.274 2°54.333 9.1 25 13.4 101160 100
2007-10-17 07:22:30 51°16.274 2°54.334 8.5 27 13.4 101160 100
2007-10-17 07:22:34 51°16.275 2°54.334 8.7 26 13.4 101160 100
2007-10-17 07:22:39 51°16.275 2°54.335 8 25 13.4 101160 100
2007-10-17 07:22:45 51°16.276 2°54.336 8.7 26 13.4 101170 100
2007-10-17 07:22:50 51°16.277 2°54.336 8.5 22 13.4 101170 100
2007-10-17 07:22:54 51°16.277 2°54.336 8.8 21 13.4 101170 100
2007-10-17 07:23:00 51°16.278 2°54.337 9.8 21 13.4 101170 100
2007-10-17 07:23:05 51°16.278 2°54.338 9.6 21 13.4 101170 100
2007-10-17 07:23:10 51°16.279 2°54.338 9.2 23 13.4 101170 100
2007-10-17 07:23:14 51°16.279 2°54.338 9.2 22 13.4 101170 100
2007-10-17 07:23:20 51°16.28 2°54.339 9.1 22 13.4 101170 100
2007-10-17 07:23:25 51°16.28 2°54.339 9.5 24 13.4 101170 100
2007-10-17 07:23:30 51°16.281 2°54.34 8.2 21 13.4 101170 100
2007-10-17 07:23:34 51°16.281 2°54.34 8.4 23 13.4 101170 100
2007-10-17 07:23:39 51°16.282 2°54.341 7.9 26 13.4 101170 100
2007-10-17 07:23:45 51°16.282 2°54.341 8.7 23 13.4 101170 100
2007-10-17 07:23:50 51°16.283 2°54.342 9.4 24 13.4 101170 100
2007-10-17 07:23:54 51°16.283 2°54.342 8.7 23 13.4 101170 100
2007-10-17 07:23:59 51°16.284 2°54.342 8.3 22 13.4 101170 100
2007-10-17 07:24:05 51°16.284 2°54.342 8.9 20 13.4 101170 100
2007-10-17 07:24:10 51°16.285 2°54.343 8.8 20 13.4 101170 100
2007-10-17 07:24:14 51°16.285 2°54.343 8.9 19 13.4 101170 100
2007-10-17 07:24:19 51°16.285 2°54.343 7.9 20 13.4 101170 100
2007-10-17 07:24:25 51°16.286 2°54.344 9.1 19 13.4 101170 100
2007-10-17 07:24:30 51°16.286 2°54.344 9.1 19 13.4 101170 100
2007-10-17 07:24:34 51°16.287 2°54.344 9.9 17 13.4 101170 100
2007-10-17 07:24:39 51°16.287 2°54.345 9.5 17 13.4 101170 100
2007-10-17 07:24:45 51°16.288 2°54.345 9.3 20 13.4 101180 100
2007-10-17 07:24:50 51°16.288 2°54.345 9.4 18 13.4 101180 100
2007-10-17 07:24:54 51°16.289 2°54.346 9.7 19 13.4 101170 100
2007-10-17 07:25:00 51°16.289 2°54.346 8.5 17 13.4 101170 100
2007-10-17 07:25:05 51°16.29 2°54.347 8.4 16 13.4 101170 99
2007-10-17 07:25:10 51°16.29 2°54.347 8.1 14 13.4 101170 99
2007-10-17 07:25:14 51°16.29 2°54.347 7.6 16 13.4 101170 99
2007-10-17 07:25:20 51°16.291 2°54.348 7.9 13 13.4 101170 99
2007-10-17 07:25:25 51°16.291 2°54.348 8.6 14 13.4 101160 99
2007-10-17 07:25:30 51°16.292 2°54.348 9.2 14 13.4 101160 99
2007-10-17 07:25:34 51°16.292 2°54.348 8.6 14 13.4 101170 99
2007-10-17 07:25:39 51°16.292 2°54.348 9.1 9 13.4 101170 99
2007-10-17 07:25:45 51°16.293 2°54.349 9.5 10 13.4 101170 100
2007-10-17 07:25:50 51°16.293 2°54.349 8.6 9 13.4 101170 100
2007-10-17 07:25:54 51°16.293 2°54.349 8.8 10 13.4 101170 100
2007-10-17 07:26:00 51°16.294 2°54.349 10 9 13.4 101170 100
2007-10-17 07:26:05 51°16.294 2°54.349 10 10 13.4 101170 100
2007-10-17 07:26:10 51°16.295 2°54.35 9.4 14 13.4 101170 100
2007-10-17 07:26:14 51°16.295 2°54.35 10.5 11 13.4 101170 100
2007-10-17 07:26:19 51°16.296 2°54.35 10.1 12 13.4 101170 100
2007-10-17 07:26:25 51°16.296 2°54.35 9.5 12 13.4 101170 100
2007-10-17 07:26:30 51°16.297 2°54.35 8.7 15 13.4 101170 100
2007-10-17 07:26:34 51°16.297 2°54.351 9.6 10 13.4 101170 100
2007-10-17 07:26:40 51°16.298 2°54.351 9.7 12 13.4 101170 100
2007-10-17 07:26:45 51°16.299 2°54.351 9.3 11 13.4 101160 100
2007-10-17 07:26:50 51°16.299 2°54.351 9.3 11 13.4 101160 100
2007-10-17 07:26:54 51°16.3 2°54.352 9.7 12 13.4 101170 100
2007-10-17 07:26:59 51°16.3 2°54.352 9.4 10 13.4 101170 100
2007-10-17 07:27:05 51°16.3 2°54.352 9.8 12 13.4 101170 100
2007-10-17 07:27:10 51°16.301 2°54.352 10.2 12 13.4 101170 100
2007-10-17 07:27:14 51°16.301 2°54.352 9.6 13 13.4 101170 100
2007-10-17 07:27:20 51°16.302 2°54.352 8.6 13 13.4 101170 100
2007-10-17 07:27:25 51°16.302 2°54.352 7.8 14 13.4 101170 99
2007-10-17 07:27:30 51°16.303 2°54.352 7.9 17 13.4 101170 99
2007-10-17 07:27:34 51°16.303 2°54.353 7.9 20 13.4 101170 99
2007-10-17 07:27:40 51°16.304 2°54.353 7.8 16 13.4 101170 99
2007-10-17 07:27:45 51°16.304 2°54.353 7.2 14 13.4 101170 99
2007-10-17 07:27:50 51°16.305 2°54.353 8.6 11 13.4 101170 99
2007-10-17 07:27:54 51°16.305 2°54.353 8.7 15 13.4 101170 99
2007-10-17 07:27:59 51°16.306 2°54.354 9 13 13.4 101170 99
2007-10-17 07:28:05 51°16.306 2°54.354 8.3 14 13.4 101170 99
2007-10-17 07:28:10 51°16.307 2°54.354 9.7 11 13.4 101170 99
2007-10-17 07:28:14 51°16.307 2°54.354 9.9 11 13.4 101170 99
2007-10-17 07:28:19 51°16.308 2°54.354 10 14 13.4 101170 99
2007-10-17 07:28:25 51°16.308 2°54.355 10.5 10 13.4 101170 99
2007-10-17 07:28:30 51°16.309 2°54.355 9.9 11 13.4 101170 99
2007-10-17 07:28:34 51°16.309 2°54.355 8.8 11 13.4 101170 99